[[{"header":{"parameterUnit":"m.s-1","parameterCategory":1,"la1":30.2991,"la2":30.254,"lo1":-89.0895,"lo2":-89.0444,"dy":0.0017,"dx":0.0017,"nx":28,"ny":28,"refTime":"2025-07-02T21:00:00:Z","depth":0,"parameterNumber":2,"parameterNumberName":"U-component_of_WINDS"},"data":[0,0,0,0,0,0,0,0,0,0,0,0,0,0,0,0,0,0,0,0,0,0,0,0,0,0,0,0,0,0,0,0,0,0,0,0,0,0,0,0,0,0,0,0,0,0,0,0,0,0,0,0,0,0,0,0,0,0,1.6541,1.6542,0,1.6582,1.6583,1.6583,1.6562,1.6561,1.656,1.6559,1.6605,1.6607,1.6609,0,0,0,0,0,0,0,0,0,0,0,0,0,1.645,1.6452,1.6541,1.6542,1.6542,1.6582,1.6583,1.6583,1.6563,1.6561,1.656,1.6559,1.6604,1.6606,1.6609,0,0,0,0,0,0,0,0,0,0,0,0,0,1.6491,1.6453,1.6541,1.6537,1.6537,1.6582,1.6583,1.6583,1.6563,1.6561,1.656,1.6558,1.6603,1.6606,1.6609,1.6662,0,0,1.662,1.6621,0,0,0,0,0,0,0,0,1.6488,1.6494,1.6537,1.6537,1.6537,1.6565,1.6567,1.661,1.6563,1.6553,1.6559,1.6557,1.6593,1.6597,1.6608,1.6665,1.6666,1.662,1.6622,1.6623,1.6624,0,0,0,0,0,0,0,1.6485,1.6492,1.6558,1.6538,1.6538,1.6534,1.6538,1.6575,1.6582,1.6554,1.6552,1.6557,1.6593,1.6605,1.6609,1.6667,1.662,1.6623,1.6625,1.6626,1.6773,1.6775,0,0,0,0,0,0,1.6482,1.649,1.6556,1.6559,1.6508,1.6537,1.6542,1.6558,1.6581,1.6583,1.6559,1.6556,1.66,1.6606,1.6611,1.6678,1.6623,1.6626,1.6628,1.6771,1.6774,1.6776,0,0,0,0,0,0,1.648,1.6488,1.6555,1.6524,1.6532,1.6541,1.6559,1.656,1.6572,1.6585,1.6586,1.657,1.6599,1.6606,1.6651,1.6679,1.6628,1.6631,1.6769,1.6772,1.6775,1.681,0,0,0,0,0,0,1.6478,1.6488,1.6507,1.6524,1.6534,1.6592,1.6561,1.6562,1.6578,1.6575,1.6596,1.6598,1.6599,1.6646,1.6654,1.6683,1.6634,1.6767,1.677,1.6774,1.6807,1.6814,1.682,0,0,0,0,0,1.6475,1.6515,1.6508,1.6516,1.6557,1.6594,1.6599,1.6598,1.658,1.66,1.6609,1.6597,1.6674,1.665,1.6659,1.669,1.6765,1.6769,1.6774,1.6804,1.6813,1.682,0,0,0,0,0,0,1.6501,1.6517,1.6509,1.6556,1.6574,1.659,1.6616,1.6607,1.6631,1.6628,1.6626,1.6631,1.6678,1.6688,1.6661,1.6744,1.6717,1.6723,1.6737,1.6745,1.6752,1.675,1.6636,0,0,0,0,0,1.6512,1.6539,1.6552,1.6592,1.6601,1.6607,1.6623,1.6621,1.6639,1.6647,1.6658,1.6678,1.6707,1.6726,1.6753,1.6807,1.6814,1.6833,1.6839,1.6845,1.6852,1.6885,1.6895,1.679,1.679,1.679,0,0,1.6536,1.6548,1.6565,1.6598,1.6611,1.6641,1.6613,1.6645,1.6669,1.6652,1.6695,1.6705,1.6727,1.6777,1.68,1.6787,1.6882,1.685,1.6855,1.6858,1.689,1.69,1.6909,1.6793,1.6792,1.6792,0,0,1.6595,1.6605,1.6642,1.6656,1.6676,1.668,1.6689,1.6707,1.6713,1.6756,1.6745,1.6773,1.6821,1.6839,1.6854,1.6922,1.6914,1.6931,1.6968,1.7,1.7009,1.7016,1.7044,1.7054,1.6936,1.6936,1.6937,0,1.6622,1.6666,1.6662,1.6696,1.6712,1.6697,1.6736,1.675,1.6779,1.6792,1.6776,1.6839,1.6852,1.6909,1.6926,1.6937,1.695,1.693,1.7007,1.7015,1.7022,1.7049,1.7059,1.6939,1.6938,1.6938,1.6938,0,1.67,1.6731,1.6758,1.6786,1.6805,1.6841,1.6845,1.6865,1.6861,1.6868,1.6914,1.6929,1.6961,1.6974,1.697,1.7031,1.7022,1.7007,1.698,1.7034,1.706,1.7069,1.6942,1.6941,1.694,1.694,0,0,1.6778,1.6805,1.6815,1.6829,1.6851,1.6876,1.6912,1.6943,1.6962,1.6982,1.7015,1.7057,1.7044,1.7061,1.706,1.7088,1.7146,1.707,1.707,1.7087,1.7218,1.7233,1.7245,1.7139,1.7141,1.7143,1.7218,0,1.6842,1.6905,1.6904,1.6963,1.6994,1.6981,1.7013,1.7032,1.7039,1.7067,1.7075,1.7107,1.7084,1.7095,1.7122,1.7133,1.7173,1.7127,1.7174,1.7175,1.7172,1.7257,1.7272,1.7342,1.7227,1.7229,1.723,0,1.6925,1.6949,1.7012,1.7032,1.7045,1.7074,1.7103,1.7129,1.7151,1.7154,1.7174,1.7169,1.7209,1.7179,1.7236,1.7205,1.7224,1.7232,1.7235,1.7242,1.7209,1.7271,1.7364,1.7376,1.7245,1.7244,1.7243,0,1.6981,1.7028,1.7073,1.7085,1.7109,1.713,1.7141,1.7161,1.718,1.7206,1.722,1.725,1.7267,1.7292,1.7296,1.7273,1.7355,1.7324,1.7362,1.7363,1.7383,1.7382,1.7485,1.7388,1.7388,1.7388,1.7388,0,1.7055,1.7095,1.7099,1.7127,1.7172,1.717,1.7216,1.7225,1.7243,1.7275,1.7265,1.7295,1.7296,1.7328,1.7331,1.7381,1.7388,1.7394,1.7395,1.7397,1.7397,1.7412,1.7409,1.7391,1.739,1.739,1.7389,0,1.7126,1.713,1.7178,1.7197,1.7203,1.7236,1.7253,1.7281,1.7287,1.7327,1.7337,1.7347,1.7384,1.7389,1.7432,1.7435,1.7496,1.7489,1.7488,1.7489,1.7528,1.7526,1.7647,1.7665,1.7553,1.7554,1.7555,0,1.7175,1.7205,1.7228,1.7248,1.726,1.7292,1.7312,1.7312,1.7333,1.7361,1.7387,1.7423,1.7452,1.7512,1.7524,1.7558,1.7556,1.7596,1.7561,1.7563,1.7562,1.7561,1.7566,1.7604,1.7605,1.7606,1.7607,0,1.7262,1.7263,1.7291,1.7322,1.7346,1.7369,1.7392,1.7409,1.7412,1.7437,1.7475,1.7497,1.7542,1.7579,1.7613,1.7626,1.7619,1.7617,1.7629,1.7633,1.7633,1.7638,1.7511,1.7615,1.7614,1.7614,1.7613,1.7613,1.7327,1.7355,1.7376,1.7409,1.7425,1.7447,1.7475,1.7485,1.7516,1.7552,1.755,1.7592,1.7616,1.7661,1.7677,1.7711,1.7699,1.7714,1.7719,1.7724,1.773,1.7624,1.7717,1.7717,1.7717,1.7716,1.7716,0,1.7418,1.743,1.746,1.7493,1.752,1.7507,1.7532,1.7556,1.7593,1.7615,1.7644,1.7689,1.7725,1.7741,1.7777,1.7802,1.78,1.7812,1.7813,1.7817,1.7737,1.7725,1.7814,1.7814,1.7814,1.7814,1.7814,1.7814,1.7468,1.7516,1.752,1.7577,1.759,1.7631,1.7647,1.7668,1.7686,1.7736,1.7766,1.7775,1.7796,1.7834,1.7868,1.7872,1.7888,1.7903,1.7906,1.7831,1.7822,1.7812,1.7802,1.7905,1.7905,1.7983,1.7984,1.7984]},{"header":{"parameterUnit":"m.s-1","parameterCategory":1,"la1":30.2991,"la2":30.254,"lo1":-89.0895,"lo2":-89.0444,"dy":0.0017,"dx":0.0017,"nx":28,"ny":28,"refTime":"2025-07-02T21:00:00:Z","depth":0,"parameterNumber":3,"parameterNumberName":"V-component_of_WINDS"},"data":[0,0,0,0,0,0,0,0,0,0,0,0,0,0,0,0,0,0,0,0,0,0,0,0,0,0,0,0,0,0,0,0,0,0,0,0,0,0,0,0,0,0,0,0,0,0,0,0,0,0,0,0,0,0,0,0,0,0,-0.4503,-0.4502,0,-0.4485,-0.4485,-0.4484,-0.4451,-0.445,-0.445,-0.4449,-0.4433,-0.4433,-0.4433,0,0,0,0,0,0,0,0,0,0,0,0,0,-0.451,-0.451,-0.4503,-0.4502,-0.4502,-0.4485,-0.4485,-0.4484,-0.4451,-0.445,-0.4449,-0.4449,-0.4433,-0.4433,-0.4433,0,0,0,0,0,0,0,0,0,0,0,0,0,-0.4501,-0.451,-0.4503,-0.4483,-0.4481,-0.4485,-0.4485,-0.4484,-0.4451,-0.445,-0.4449,-0.4448,-0.4433,-0.4433,-0.4433,-0.4454,0,0,-0.4434,-0.4434,0,0,0,0,0,0,0,0,-0.4502,-0.4501,-0.4486,-0.4485,-0.4483,-0.4469,-0.4481,-0.4474,-0.4451,-0.4463,-0.4449,-0.4448,-0.4446,-0.4445,-0.4444,-0.4454,-0.4453,-0.4434,-0.4434,-0.4434,-0.4434,0,0,0,0,0,0,0,-0.4503,-0.4502,-0.4496,-0.4486,-0.4484,-0.4477,-0.4474,-0.448,-0.446,-0.4462,-0.4459,-0.4457,-0.4444,-0.4444,-0.4443,-0.4453,-0.4434,-0.4434,-0.4434,-0.4434,-0.4481,-0.4482,0,0,0,0,0,0,-0.4506,-0.4502,-0.4496,-0.4495,-0.449,-0.4477,-0.4474,-0.4474,-0.446,-0.4457,-0.4458,-0.4456,-0.4444,-0.4443,-0.4442,-0.4467,-0.4434,-0.4434,-0.4435,-0.448,-0.4481,-0.4483,0,0,0,0,0,0,-0.4506,-0.4505,-0.4497,-0.4498,-0.4496,-0.4478,-0.4478,-0.4475,-0.4474,-0.4457,-0.4454,-0.4461,-0.4443,-0.4442,-0.4452,-0.4466,-0.4435,-0.4435,-0.4479,-0.448,-0.4482,-0.4517,0,0,0,0,0,0,-0.4506,-0.4506,-0.4513,-0.4498,-0.4496,-0.4506,-0.4479,-0.4475,-0.4474,-0.4471,-0.4459,-0.4456,-0.4442,-0.4452,-0.4452,-0.4466,-0.4435,-0.4477,-0.448,-0.4481,-0.4515,-0.452,-0.4524,0,0,0,0,0,-0.4507,-0.4524,-0.4513,-0.4513,-0.4505,-0.4507,-0.4506,-0.4489,-0.4475,-0.4483,-0.4473,-0.4456,-0.4465,-0.4453,-0.4453,-0.4468,-0.4476,-0.4479,-0.4481,-0.4513,-0.4519,-0.4524,0,0,0,0,0,0,-0.4541,-0.4521,-0.451,-0.4522,-0.4516,-0.4501,-0.451,-0.4496,-0.4494,-0.4491,-0.4471,-0.4469,-0.4482,-0.4475,-0.4463,-0.4488,-0.4468,-0.4471,-0.4492,-0.4498,-0.4502,-0.4504,-0.4435,0,0,0,0,0,-0.4549,-0.4552,-0.4535,-0.4548,-0.4546,-0.4529,-0.4529,-0.4516,-0.451,-0.4507,-0.4497,-0.4492,-0.4494,-0.4495,-0.4496,-0.4514,-0.4511,-0.4524,-0.4529,-0.4533,-0.4535,-0.4546,-0.4552,-0.4491,-0.449,-0.449,0,0,-0.4568,-0.4558,-0.456,-0.4555,-0.4548,-0.4553,-0.4527,-0.4531,-0.4535,-0.4508,-0.4517,-0.451,-0.4503,-0.4517,-0.4523,-0.4513,-0.4552,-0.4536,-0.4539,-0.454,-0.4549,-0.4555,-0.456,-0.4492,-0.4492,-0.4492,0,0,-0.4604,-0.4596,-0.4606,-0.4601,-0.4592,-0.4581,-0.4583,-0.457,-0.4565,-0.4573,-0.4554,-0.4557,-0.456,-0.4556,-0.4555,-0.4591,-0.4576,-0.4592,-0.4617,-0.4627,-0.4632,-0.4636,-0.465,-0.4656,-0.4594,-0.4594,-0.4594,0,-0.4628,-0.4632,-0.4613,-0.462,-0.4619,-0.4594,-0.4606,-0.4601,-0.4594,-0.4594,-0.4582,-0.4586,-0.4579,-0.4593,-0.4602,-0.4601,-0.4605,-0.4593,-0.4633,-0.4637,-0.4641,-0.4654,-0.4659,-0.4596,-0.4596,-0.4596,-0.4596,0,-0.4663,-0.4667,-0.4676,-0.4669,-0.4669,-0.4678,-0.4661,-0.4663,-0.4651,-0.4642,-0.4652,-0.4643,-0.4642,-0.4644,-0.4633,-0.4657,-0.4651,-0.4636,-0.4616,-0.4649,-0.4661,-0.4666,-0.4599,-0.4599,-0.4598,-0.4597,0,0,-0.4719,-0.4702,-0.4706,-0.4703,-0.4692,-0.4695,-0.4704,-0.4702,-0.4705,-0.4701,-0.4708,-0.4712,-0.4699,-0.4697,-0.4685,-0.4694,-0.4725,-0.4678,-0.4678,-0.4688,-0.4753,-0.4764,-0.477,-0.4715,-0.4716,-0.4716,-0.4754,0,-0.4754,-0.4766,-0.475,-0.4767,-0.4771,-0.4748,-0.4756,-0.4751,-0.4742,-0.4745,-0.4736,-0.4739,-0.4721,-0.472,-0.4728,-0.4719,-0.4737,-0.4716,-0.4723,-0.4723,-0.4726,-0.4776,-0.4788,-0.4824,-0.4758,-0.4759,-0.4759,0,-0.4795,-0.4792,-0.481,-0.4799,-0.48,-0.4807,-0.4805,-0.4807,-0.4802,-0.4795,-0.4794,-0.4779,-0.4788,-0.4768,-0.4781,-0.4767,-0.4768,-0.4765,-0.4766,-0.4766,-0.4744,-0.4779,-0.4835,-0.4841,-0.4766,-0.4766,-0.4765,0,-0.4835,-0.4837,-0.4847,-0.4845,-0.4833,-0.4838,-0.4834,-0.4827,-0.4827,-0.4826,-0.4827,-0.4827,-0.4827,-0.4828,-0.4814,-0.48,-0.4829,-0.4807,-0.4825,-0.4826,-0.4832,-0.4832,-0.489,-0.4832,-0.4832,-0.4832,-0.4832,0,-0.4876,-0.4887,-0.4865,-0.4872,-0.4885,-0.4867,-0.488,-0.4873,-0.4868,-0.4874,-0.4854,-0.4861,-0.4842,-0.4846,-0.4836,-0.4849,-0.4849,-0.4845,-0.4842,-0.4847,-0.4848,-0.4848,-0.4846,-0.4834,-0.4833,-0.4833,-0.4833,0,-0.4923,-0.4909,-0.4919,-0.4907,-0.4904,-0.4914,-0.4904,-0.491,-0.4901,-0.4909,-0.4909,-0.4895,-0.49,-0.4886,-0.4888,-0.4881,-0.49,-0.4893,-0.4902,-0.49,-0.4919,-0.4918,-0.498,-0.4988,-0.4925,-0.4925,-0.4926,0,-0.495,-0.4958,-0.4947,-0.4949,-0.4945,-0.4949,-0.495,-0.4933,-0.4935,-0.493,-0.4937,-0.494,-0.4941,-0.495,-0.494,-0.4942,-0.4935,-0.4957,-0.4936,-0.4941,-0.4937,-0.4937,-0.4938,-0.4962,-0.4962,-0.4963,-0.4964,0,-0.5,-0.4992,-0.4994,-0.4993,-0.4995,-0.4993,-0.4991,-0.4994,-0.4976,-0.4979,-0.4984,-0.4985,-0.4987,-0.4991,-0.4991,-0.4987,-0.4973,-0.497,-0.4975,-0.498,-0.4986,-0.4984,-0.4915,-0.4969,-0.4969,-0.4968,-0.4968,-0.4968,-0.5038,-0.5045,-0.5039,-0.5041,-0.5038,-0.5036,-0.5042,-0.5033,-0.5036,-0.5037,-0.5027,-0.5034,-0.5029,-0.5028,-0.5026,-0.5031,-0.5021,-0.5028,-0.5029,-0.5031,-0.5035,-0.4984,-0.5031,-0.5031,-0.5031,-0.5031,-0.5031,0,-0.5088,-0.5083,-0.5085,-0.5082,-0.5085,-0.5071,-0.5068,-0.5071,-0.5077,-0.5074,-0.5076,-0.5081,-0.5085,-0.5076,-0.5079,-0.5085,-0.5079,-0.5086,-0.5086,-0.5086,-0.5043,-0.5039,-0.5092,-0.5092,-0.5092,-0.5092,-0.5092,-0.5092,-0.5114,-0.5125,-0.5118,-0.5128,-0.5123,-0.5129,-0.5128,-0.5127,-0.5125,-0.5132,-0.5135,-0.5129,-0.5124,-0.5126,-0.5129,-0.5126,-0.5129,-0.5139,-0.5134,-0.5095,-0.5089,-0.5083,-0.508,-0.5139,-0.514,-0.5177,-0.5177,-0.5178]}]]